Find OneWeb SL0513

NORAD ID: 54131 Int'l Des: 2022-138 Owner: ONEWEBN Country: UK Constellation: oneweb operational
又名: ONEWEB-0513 spacetrack, celestrak
LEOCIRCULARPOLARONEWEB_TYPE

当前视图

正在加载3D地球...

About OneWeb SL0513

OneWeb SL0513 (NORAD 54131) is a oneweb constellation satellite launched Oct 22, 2022 by ONEWEBN of UK. It operates in LEO, CIRCULAR, POLAR, ONEWEB_TYPE orbit with a mass of 148.00 kg.

即将过境

Passes for default location (London). Set your location on the main map for personalized predictions.

高度历史

Loading altitude history...

两行轨道根数

1 54131U 22138U 26238.56711720 -.00000276 00000-0 -71536-3 0 9992
2 54131 87.9143 290.8912 0002946 100.7469 259.3995 13.20261813186001
Epoch: Aug 26, 2026 • Age: 9 hours

当前状态

高度 1214.7 km
远地点 / 近地点 N/A
速度 7.25 km/s
星下点 -87.02°S, 153.79°W
发射日期 Oct 22, 2022
运行时间 3.8 years
类型 internet

技术详情

分类 Payload
质量 148.00 kg
干质量 140.00 kg
总质量 148.00 kg
长度 1.30 m
直径 1.00 m
跨度 5.00 m
形状 Trapezoid+2 pan
制造商 ONEWUS
平台类型 ARROW
阶段状态 In Orbit
所有者/国家 ONEWEBN/UK

Most Searched